Lapse_Rate
7.1 6.6 6.0 5.7 5.7 5.1 4.5 3.8 4.2 4.4 4.9 4.5 4.7 4.4 5.1 5.3 5.7 5.2 4.8 4.7 5.8 5.7 5.6 5.8 6.2 5.7 5.5 5.7 5.9 5.9 5.9 5.9 6.0 6.1 6.1 6.0 5.9 5.8 5.8 5.7 5.8 5.9 5.9
7.2 7.2 6.8 6.1 5.6 5.2 4.5 3.8 4.0 4.0 4.1 4.8 4.2 4.4 4.9 5.7 5.6 5.3 4.6 5.6 4.7 5.6 5.8 5.6 5.9 6.0 5.8 5.6 5.7 5.8 5.7 5.8 5.6 5.8 6.0 5.9 5.9 6.1 6.2 6.1 6.0 6.0 6.0
7.4 7.1 6.9 6.8 5.8 5.2 4.4 3.8 3.7 3.4 4.1 4.5 5.3 5.2 5.7 5.2 4.8 5.1 5.4 5.3 4.8 5.3 5.3 6.4 5.9 5.9 5.8 6.0 6.0 5.8 5.7 5.6 5.8 5.8 5.7 6.2 6.4 6.5 6.3 6.4 6.2 6.2 6.1
6.7 7.0 7.3 6.9 6.3 5.2 4.7 3.6 3.4 3.2 3.4 3.9 4.6 4.8 5.5 4.8 4.9 5.1 5.1 5.5 5.2 4.5 5.3 5.3 5.7 5.8 5.8 6.0 6.2 6.2 5.8 5.7 5.6 5.7 5.8 6.0 6.1 6.2 6.5 6.3 6.4 6.2 6.2
6.5 6.8 7.1 7.3 6.8 5.5 4.6 4.2 3.7 2.9 3.5 3.3 4.4 4.7 4.9 4.8 4.8 4.9 5.0 5.5 5.4 5.1 5.0 4.5 4.7 5.6 5.9 5.9 6.0 6.1 5.9 5.7 5.5 5.6 5.6 5.7 6.1 6.4 6.4 6.3 6.3 6.2 6.2
5.9 6.1 6.4 6.9 7.0 6.4 5.1 4.7 4.0 3.5 3.2 3.5 3.2 4.0 4.1 4.7 5.3 4.8 4.5 5.2 5.4 4.7 5.0 4.9 4.8 5.1 5.3 5.7 5.9 5.8 5.9 6.0 5.8 5.8 5.7 5.4 5.6 6.1 6.3 6.3 5.9 6.1 5.8
5.8 6.4 6.8 6.9 7.0 6.7 5.7 4.8 4.6 3.9 3.3 3.0 3.4 4.1 4.2 5.2 4.7 4.8 4.6 5.0 5.4 5.1 5.1 4.8 4.7 4.9 4.7 5.2 5.7 5.6 5.6 5.3 5.3 5.4 5.7 5.4 5.6 5.7 5.7 5.8 5.4 5.8 5.8
5.0 6.0 6.2 6.9 7.3 7.3 6.8 5.7 4.7 4.4 3.2 2.5 3.5 3.6 3.6 4.4 4.3 4.9 4.7 4.8 5.3 5.4 5.3 4.9 4.8 5.1 5.3 5.1 4.4 4.4 4.6 5.1 5.2 4.9 5.1 4.9 5.1 5.4 5.7 5.9 5.9 5.7 5.8
4.1 5.4 5.9 6.2 6.6 6.7 6.5 6.0 4.5 4.2 3.2 2.7 2.9 3.3 3.7 4.2 4.6 4.8 4.8 4.6 5.1 5.6 5.3 5.5 5.2 5.4 5.0 5.0 4.8 4.9 5.0 5.1 4.8 4.6 4.9 4.9 5.0 5.0 5.3 5.3 5.9 6.0 5.7
3.8 4.4 5.3 5.4 5.7 6.1 6.2 5.9 5.1 4.0 3.3 2.8 2.7 2.9 2.9 3.6 4.4 4.9 5.1 4.9 4.9 5.7 5.1 5.2 5.4 5.5 5.0 4.5 4.7 5.0 5.2 5.1 4.7 4.9 4.8 5.1 5.2 5.0 4.9 5.6 6.0 5.8 5.6
3.5 3.9 4.8 5.0 5.3 5.7 5.8 5.9 5.6 4.3 3.6 2.8 3.0 3.1 3.4 3.7 4.2 5.3 5.2 4.6 5.2 5.0 5.0 5.2 5.7 5.1 4.6 4.9 5.4 5.5 5.5 4.8 5.0 4.9 4.7 5.0 5.3 4.9 5.1 5.6 5.5 5.0 5.3
3.5 3.6 4.5 4.9 4.9 5.4 5.7 6.0 5.8 5.1 3.9 3.3 3.0 3.5 3.6 3.7 4.1 4.8 5.1 4.9 5.0 4.8 5.0 5.5 5.3 5.4 4.8 4.7 4.8 5.1 5.3 5.0 5.5 5.2 5.1 4.9 5.3 5.2 5.6 5.6 5.4 5.3 5.0
3.4 3.5 4.1 4.8 4.6 5.0 5.6 5.8 5.8 5.9 4.2 3.7 3.3 3.6 3.7 3.7 4.4 4.5 4.9 5.8 4.9 5.0 5.0 5.6 5.2 5.4 5.0 4.7 4.5 4.6 5.2 5.5 5.5 5.3 5.2 5.1 5.1 4.9 4.9 5.5 4.9 4.6 4.4
3.3 3.3 3.8 4.7 4.7 4.6 5.3 5.5 5.6 5.6 5.2 3.8 4.0 3.9 3.7 3.7 4.3 4.8 5.0 5.6 5.2 4.8 4.8 5.4 5.6 5.2 4.9 4.4 4.2 4.4 4.7 4.9 5.3 5.3 5.5 5.1 5.1 4.9 5.1 4.9 4.4 4.1 4.0
3.3 3.1 3.4 4.2 4.8 4.7 5.0 5.1 5.3 5.4 5.7 4.2 4.1 4.5 4.2 4.4 4.3 4.6 4.5 5.4 5.9 5.1 6.1 5.4 5.5 5.1 4.6 4.9 4.9 4.8 4.9 5.1 5.6 5.2 5.3 5.0 5.0 4.9 4.7 4.6 4.1 3.6 3.5
3.5 3.2 3.2 3.6 4.5 4.5 4.9 5.1 5.2 5.4 5.6 5.5 4.6 5.2 4.9 4.8 4.9 4.2 4.6 5.0 5.6 5.7 5.7 5.5 5.6 5.3 5.3 5.0 5.1 5.2 5.2 5.5 5.2 5.7 4.9 5.5 5.1 5.0 4.7 4.5 4.6 3.8 3.8
3.6 3.3 3.2 3.4 3.9 4.4 4.7 5.0 5.1 5.5 5.6 5.6 5.2 4.7 5.8 5.4 4.6 5.0 4.5 4.8 5.3 5.9 5.9 5.9 5.6 5.5 5.4 5.4 5.5 5.2 5.5 5.6 5.7 5.7 5.3 5.3 4.9 4.9 4.7 4.7 4.5 3.9 4.0
3.5 3.2 3.2 3.2 3.4 3.8 4.3 4.6 4.8 5.1 5.4 5.7 5.8 5.5 5.6 5.9 5.3 5.1 4.9 4.6 5.4 4.8 5.9 6.1 5.6 5.3 5.6 5.8 5.7 5.8 5.8 5.8 5.6 5.4 5.5 5.2 5.3 4.9 4.9 4.8 4.4 4.3 4.3
3.4 3.2 3.1 2.8 2.7 3.3 4.0 4.3 4.6 4.7 5.0 5.7 5.4 5.7 6.2 6.4 6.2 6.1 5.4 5.2 5.1 5.1 5.5 5.5 6.0 5.5 5.7 5.7 5.7 5.5 5.7 5.8 5.7 5.8 5.4 5.4 5.2 5.0 4.7 4.6 4.4 4.5 4.5
3.1 2.9 2.7 2.3 2.5 3.1 3.8 4.0 4.3 4.4 4.8 5.3 5.1 4.9 5.3 6.1 5.9 5.7 5.5 5.6 5.6 5.6 5.4 5.7 6.3 5.9 5.8 5.7 5.7 5.8 5.8 5.9 5.9 5.9 5.4 5.3 5.5 5.4 5.1 4.9 4.6 4.3 4.2
2.7 2.5 2.4 2.4 2.5 2.8 3.6 3.8 4.0 4.3 4.3 4.8 4.4 4.5 4.8 4.9 5.3 5.6 6.2 6.0 5.8 5.9 6.1 6.1 6.7 6.0 6.1 5.6 5.7 5.7 5.6 5.9 5.8 5.9 5.7 5.4 5.5 5.3 5.2 4.9 5.0 4.7 4.9
2.6 2.5 2.4 2.5 2.3 2.6 3.3 3.7 3.8 4.1 4.1 4.3 4.4 4.4 4.7 4.8 5.3 5.4 5.2 5.2 5.5 5.8 6.0 6.5 7.4 6.5 6.0 5.8 5.6 5.6 5.8 6.0 6.0 5.8 5.8 5.8 5.6 5.5 5.3 4.9 4.7 4.8 4.6
2.6 2.5 2.6 2.6 2.4 2.6 3.2 3.7 3.7 3.9 4.0 4.1 4.1 4.0 4.1 4.0 4.2 4.3 5.1 4.6 5.4 5.8 6.0 6.7 6.7 6.7 5.7 5.6 5.6 5.9 5.6 5.9 5.7 5.5 5.6 5.7 5.6 5.5 5.3 4.9 4.7 4.7 4.6
2.6 2.6 2.7 2.7 2.7 2.7 2.9 3.5 3.7 3.7 3.8 3.9 4.1 3.5 3.3 3.4 3.9 3.7 4.4 5.2 5.1 5.5 5.8 6.8 6.6 6.4 5.4 5.5 5.4 5.7 5.9 6.0 5.7 5.5 5.5 5.7 5.8 5.5 5.2 5.1 4.9 4.9 4.9
2.8 2.8 3.0 3.0 3.1 3.1 3.1 3.4 3.7 3.5 3.6 3.6 3.8 4.0 3.9 4.2 4.5 4.7 4.9 4.7 4.6 5.1 5.2 5.9 6.3 5.4 5.5 5.4 5.8 5.8 6.0 5.7 5.8 5.7 5.9 5.7 5.5 5.5 5.4 5.5 5.2 5.2 4.9
3.0 3.1 3.2 3.4 3.6 3.6 3.4 3.5 3.6 3.5 3.5 3.5 3.5 3.6 3.8 3.9 4.1 4.0 3.6 4.0 4.4 4.5 4.7 5.4 5.8 5.6 5.4 5.6 5.7 5.7 5.3 5.9 5.9 6.0 5.7 5.8 6.1 6.0 6.0 5.9 5.4 4.8 4.8
Wind_Speed
9 11 13 14 15 15 15 14 16 16 13 10 8 8 5 3 4 3 17 24 23 27 18 14 17 17 15 15 14 12 15 5 9 6 5 4 3 3 2 2 5 7 7
13 13 13 14 14 15 17 18 16 15 13 9 9 7 8 7 4 5 10 19 15 23 21 20 18 20 15 17 16 17 9 3 10 6 4 3 0 1 2 1 3 4 5
14 15 15 14 14 15 15 17 17 16 14 14 10 10 9 7 4 6 6 11 10 13 21 22 20 19 17 16 19 18 17 12 7 14 5 3 4 3 1 4 3 4 4
11 13 15 15 14 15 13 14 15 16 13 15 12 13 9 10 9 7 7 10 10 10 8 20 23 21 15 18 17 16 14 14 14 8 1 3 5 4 2 2 3 4 5
12 14 13 16 15 14 14 12 14 14 15 14 12 11 12 9 9 8 11 10 6 8 12 9 15 20 16 18 20 18 15 14 12 11 4 2 2 2 3 3 4 2 4
11 12 11 13 12 12 13 13 15 13 14 14 13 13 13 13 10 10 7 9 8 8 12 13 12 9 13 18 17 18 17 16 13 9 4 4 4 4 3 3 2 3 4
7 10 12 12 12 13 14 13 15 17 14 15 14 14 14 13 14 12 8 10 8 10 13 16 16 14 14 14 13 13 16 13 11 14 10 3 3 4 3 4 2 3 2
6 7 9 10 10 11 12 14 14 17 15 15 15 14 13 8 10 12 10 9 10 12 18 18 18 19 19 17 17 13 12 15 11 14 10 6 4 3 3 4 5 2 1
7 8 9 7 9 10 12 13 14 15 15 15 14 14 13 13 11 14 15 9 12 8 16 19 18 18 19 20 21 15 16 15 14 13 12 10 5 3 3 3 3 4 4
8 8 7 8 8 9 9 11 12 13 16 15 13 12 14 13 12 12 15 13 16 10 13 13 16 16 17 19 20 18 18 17 13 10 13 11 3 5 3 4 3 3 4
7 9 8 8 9 8 8 10 11 13 14 15 14 15 13 14 12 12 15 13 17 13 15 17 16 17 17 17 17 15 19 18 15 13 14 12 8 5 4 2 2 3 2
6 8 7 7 9 10 10 10 11 12 12 14 14 15 15 13 12 12 15 13 15 15 15 18 18 18 18 18 18 16 14 19 18 16 14 13 8 10 7 5 6 4 3
6 6 7 6 9 11 11 11 11 13 12 14 15 15 14 14 13 14 15 14 13 14 13 16 18 18 18 17 18 17 16 17 16 17 16 16 14 12 8 8 6 4 3
7 5 5 6 8 11 11 11 12 12 13 13 14 15 14 14 13 15 16 14 13 15 16 15 16 15 16 16 17 16 15 16 15 15 15 15 16 16 14 11 10 6 5
6 6 4 5 8 11 12 12 12 13 13 13 13 14 15 13 14 15 15 14 12 15 18 17 17 18 16 13 17 17 16 15 14 13 13 13 14 16 16 11 10 10 6
5 6 3 6 8 10 12 13 13 13 14 14 13 14 14 14 13 15 16 15 12 14 15 17 16 16 13 22 24 21 16 15 15 14 14 13 14 15 18 18 18 17 12
5 5 4 5 7 8 11 12 13 13 13 14 15 14 13 13 13 14 16 15 11 12 11 17 17 18 17 23 25 25 15 16 16 15 14 13 12 16 14 15 17 16 17
5 5 4 6 6 7 9 11 12 12 12 13 14 15 15 15 14 14 16 15 10 11 9 14 16 17 15 25 28 26 17 15 16 16 16 17 15 16 15 14 12 11 11
5 5 5 6 5 7 8 10 12 11 12 12 13 15 15 15 14 14 16 15 11 11 7 9 16 15 14 25 29 25 17 14 16 15 15 15 15 20 21 13 13 10 7
4 5 6 5 5 6 7 9 11 11 12 14 15 14 13 13 13 14 15 12 12 12 8 8 14 21 17 25 29 27 13 14 11 12 13 20 17 23 26 16 13 11 10
4 5 4 5 6 6 6 9 10 11 12 14 14 15 13 13 12 12 12 12 12 11 10 6 6 15 16 19 31 33 16 13 12 11 11 11 20 25 26 22 13 16 11
3 4 4 5 6 6 5 9 10 12 12 13 14 14 13 11 10 13 11 12 11 10 9 2 3 9 12 20 28 33 25 21 14 14 11 12 26 27 28 21 21 16 16
3 3 3 6 6 6 4 8 10 12 13 13 13 14 13 12 11 12 12 11 10 8 6 2 2 6 9 11 27 31 27 22 13 11 14 19 28 28 24 25 19 19 9
2 2 4 7 8 6 9 7 10 11 12 13 14 12 12 14 11 9 8 9 9 7 7 5 4 2 7 8 10 13 14 16 10 11 11 13 18 20 17 15 13 10 10
2 2 4 6 8 9 9 9 10 9 10 11 12 12 10 11 11 10 9 10 11 9 8 4 2 3 7 9 14 15 12 11 12 12 10 10 10 10 9 9 9 8 9
2 2 4 5 7 7 10 10 9 8 9 9 8 9 9 9 9 9 11 20 22 21 16 10 5 3 11 12 19 21 22 24 26 11 11 10 12 12 12 11 11 10 13
Wind_Direction
338 347 344 343 340 343 341 346 340 340 338 337 330 311 314 278 260 260 300 296 186 169 168 164 162 159 159 166 156 143 139 121 135 112 88 61 63 67 60 116 146 148 151
351 349 349 347 345 338 340 338 336 334 330 322 314 292 303 297 291 270 270 293 245 172 170 167 170 166 157 156 161 157 148 108 172 146 101 137 313 219 181 216 219 197 180
344 341 346 345 339 340 340 330 330 326 327 318 321 318 308 303 267 287 312 279 246 194 175 171 168 170 160 165 167 166 166 161 180 168 138 140 204 128 201 214 221 214 206
344 339 341 340 337 333 330 323 322 322 318 325 319 315 312 300 296 292 303 304 215 177 204 171 170 166 166 167 171 172 169 161 173 176 98 82 144 161 171 261 219 219 211
344 337 334 334 332 331 327 323 319 320 324 323 321 315 306 295 290 293 281 287 224 163 150 177 181 170 168 169 170 173 170 176 169 180 153 119 66 91 137 173 206 244 217
338 333 325 331 328 327 326 328 320 324 325 322 316 306 299 303 303 289 276 288 240 167 153 152 146 168 170 170 173 175 176 176 176 184 157 163 163 174 145 124 165 178 227
317 319 325 329 326 328 327 328 329 320 326 317 314 313 304 300 300 283 289 266 248 177 170 164 161 163 166 167 158 176 163 182 174 181 189 150 185 141 134 118 133 156 202
296 298 300 312 316 318 322 322 324 318 322 319 318 312 305 292 290 284 283 280 253 181 170 170 168 168 165 163 165 178 175 174 182 193 193 192 202 171 158 148 139 84 182
297 300 300 300 307 316 317 316 318 316 317 318 315 310 305 305 294 295 283 267 258 205 181 173 176 179 172 171 176 175 179 184 187 196 201 211 192 187 172 134 127 137 157
302 303 305 303 307 311 310 310 311 313 315 315 316 310 302 295 293 290 281 273 269 216 175 176 171 175 178 180 184 180 180 184 189 188 194 206 159 187 179 155 153 139 149
294 299 301 299 301 305 312 306 313 319 321 321 320 310 306 303 306 297 286 263 277 214 194 175 174 175 179 184 186 195 171 177 177 185 189 186 158 168 190 134 129 161 130
283 291 294 299 311 312 319 318 317 318 318 315 315 310 308 306 310 301 288 290 280 212 199 183 179 178 179 181 184 179 180 179 179 180 181 185 175 177 172 166 190 179 141
294 294 300 307 314 314 319 320 321 317 321 318 319 314 309 313 312 305 293 287 279 218 193 184 183 180 182 183 187 184 179 180 182 182 181 189 180 185 178 184 177 154 143
273 279 291 301 313 314 315 321 321 320 321 320 318 311 312 312 315 308 294 286 280 255 187 187 175 182 187 183 186 184 181 184 185 188 185 188 186 189 185 187 181 149 153
266 277 288 300 313 315 318 321 321 322 322 319 320 310 310 313 314 309 303 298 292 284 188 186 187 186 186 184 185 183 180 180 184 183 184 188 190 193 187 182 178 161 157
256 269 285 306 309 313 316 318 321 321 322 316 317 313 313 319 315 316 311 298 291 275 199 184 183 186 189 185 185 181 179 179 182 182 187 187 183 197 186 191 180 174 169
255 267 281 287 295 307 311 314 317 317 319 318 317 315 314 314 315 320 309 297 303 284 235 184 182 191 191 182 184 184 183 179 185 185 187 183 189 186 190 188 175 180 184
271 294 281 296 283 300 309 312 313 315 316 316 318 317 321 315 320 327 312 300 310 293 302 188 185 190 191 178 182 183 181 184 187 186 185 182 178 186 181 178 179 188 185
250 254 262 266 283 295 306 310 311 313 314 319 319 318 316 319 322 320 310 306 314 297 283 233 176 185 190 181 183 178 184 185 185 187 185 181 180 183 170 176 178 175 173
244 273 284 277 290 294 310 312 311 316 316 322 316 312 310 317 314 311 310 306 302 293 285 293 182 192 187 181 185 182 186 183 181 183 182 180 177 176 176 179 178 177 191
263 279 295 286 284 293 306 311 310 312 316 313 314 315 316 307 304 308 303 305 302 294 275 255 233 179 179 185 185 186 186 183 177 180 178 177 171 175 185 185 185 194 174
290 301 298 297 297 296 304 311 307 311 312 313 313 314 314 312 317 310 318 314 300 296 286 286 258 180 174 181 190 190 189 182 181 183 181 178 177 181 186 182 190 166 146
295 291 284 302 301 294 283 305 305 312 315 314 315 315 313 313 314 320 324 318 312 301 301 343 209 182 175 182 188 193 190 182 180 176 175 173 179 180 185 191 180 166 158
283 285 316 311 304 309 311 285 302 312 313 312 313 315 315 318 322 328 317 316 304 307 318 341 359 128 184 180 185 191 190 177 170 154 154 159 170 177 184 188 177 177 177
273 297 295 297 297 307 307 304 309 312 312 311 312 314 315 316 328 324 326 318 309 307 303 325 353 319 207 193 182 182 183 171 161 142 144 153 162 170 175 169 166 159 158
283 304 300 288 288 298 303 302 304 307 306 307 312 312 313 321 318 325 323 317 314 315 324 330 316 277 273 296 181 184 179 168 155 158 167 169 173 180 175 168 170 176 168